User: anonymous   Login
Location: Unspecified
(0.0000°N, 0.0000°E)
Time: 07:20:16
(UTC+00:00)
Language:

NOSS 3-3 (A) - Orbit

View from above orbital plane
View from above orbital plane
View from above satellite
View from above satellite

Ground track
Ground track

The orbit data is extracted from the following two-line orbital elements,

1 28537U 05004A   17253.06683783 0.00000000  00000-0  00000-0 0    06
2 28537  63.4244 332.0600 0274000 358.3985   1.6015 13.40732125    09
Epoch (UTC): 10 September 2017 01:36:14
Eccentricity: 0.0274000
inclination: 63.4244°
perigee height: 901 km
apogee height: 1311 km
right ascension of ascending node: 332.0600°
argument of perigee: 358.3985°
revolutions per day: 13.40732125
mean anomaly at epoch: 1.6015°
orbit number at epoch: 0

The dashed part of the orbit path shows where the satellite is in the earth's shadow,  

DLR